| time (UTC) | temp F | wind direction | speed MPH | gust MPH | rain 1hr in | rain 24hr in | rain mn in | humidity % | barometer mb |
| 20260504010106 | 79 | 345 | 3.0 | 11.0 | 0.00 | 0.00 | 0.00 | 16 | 1006.5 |
| 20260504004600 | 81 | 41 | 3.0 | 16.0 | 0.00 | 0.00 | 0.00 | 16 | 1006.5 |
| 20260504003100 | 83 | 10 | 3.0 | 15.0 | 0.00 | 0.00 | 0.00 | 15 | 1006.6 |
| 20260504001559 | 84 | 256 | 4.0 | 16.0 | 0.00 | 0.00 | 0.00 | 12 | 1006.7 |
| 20260504000137 | 84 | 256 | 5.0 | 11.0 | 0.00 | 0.00 | 0.00 | 11 | 1006.7 |
| 20260503234601 | 84 | 254 | 6.0 | 14.0 | 0.00 | 0.00 | 0.00 | 11 | 1006.7 |
| 20260503233054 | 84 | 227 | 4.0 | 10.0 | 0.00 | 0.00 | 0.00 | 11 | 1006.9 |
| 20260503231556 | 84 | 228 | 11.0 | 19.0 | 0.00 | 0.00 | 0.00 | 11 | 1006.8 |
| 20260503230056 | 85 | 216 | 7.0 | 17.0 | 0.00 | 0.00 | 0.00 | 11 | 1006.8 |
| 20260503224558 | 85 | 237 | 8.0 | 17.0 | 0.00 | 0.00 | 0.00 | 11 | 1007.1 |
| 20260503223058 | 85 | 198 | 9.0 | 16.0 | 0.00 | 0.00 | 0.00 | 11 | 1007.1 |
| 20260503221557 | 85 | 199 | 10.0 | 20.0 | 0.00 | 0.00 | 0.00 | 11 | 1007.4 |
| 20260503220057 | 85 | 192 | 7.0 | 20.0 | 0.00 | 0.00 | 0.00 | 11 | 1007.6 |
| 20260503214555 | 86 | 185 | 6.0 | 18.0 | 0.00 | 0.00 | 0.00 | 11 | 1007.8 |
| 20260503213110 | 86 | 195 | 7.0 | 15.0 | 0.00 | 0.00 | 0.00 | 10 | 1008.0 |
| 20260503211619 | 84 | 197 | 9.0 | 18.0 | 0.00 | 0.00 | 0.00 | 11 | 1008.4 |
| 20260503210057 | 85 | 224 | 7.0 | 14.0 | 0.00 | 0.00 | 0.00 | 11 | 1008.9 |
| 20260503204558 | 84 | 215 | 3.0 | 15.0 | 0.00 | 0.00 | 0.00 | 11 | 1009.1 |
| 20260503203114 | 84 | 199 | 7.0 | 16.0 | 0.00 | 0.00 | 0.00 | 11 | 1009.6 |
| 20260503201558 | 84 | 185 | 9.0 | 21.0 | 0.00 | 0.00 | 0.00 | 11 | 1009.7 |
| 20260503200057 | 84 | 226 | 7.0 | 17.0 | 0.00 | 0.00 | 0.00 | 11 | 1009.9 |
| 20260503194558 | 84 | 251 | 10.0 | 19.0 | 0.00 | 0.00 | 0.00 | 12 | 1010.2 |
| 20260503193059 | 84 | 199 | 8.0 | 26.0 | 0.00 | 0.00 | 0.00 | 11 | 1010.4 |
| 20260503191559 | 83 | 176 | 8.0 | 22.0 | 0.00 | 0.00 | 0.00 | 13 | 1010.7 |
| 20260503190055 | 83 | 220 | 11.0 | 20.0 | 0.00 | 0.00 | 0.00 | 14 | 1010.9 |
| 20260503184556 | 82 | 199 | 9.0 | 20.0 | 0.00 | 0.00 | 0.00 | 14 | 1011.2 |
| 20260503183056 | 82 | 215 | 10.0 | 20.0 | 0.00 | 0.00 | 0.00 | 13 | 1011.8 |
| 20260503181604 | 81 | 199 | 8.0 | 18.0 | 0.00 | 0.00 | 0.00 | 15 | 1012.1 |
| 20260503180112 | 81 | 239 | 10.0 | 23.0 | 0.00 | 0.00 | 0.00 | 16 | 1012.4 |
| 20260503174556 | 80 | 191 | 6.0 | 15.0 | 0.00 | 0.00 | 0.00 | 17 | 1012.8 |
| 20260503173100 | 79 | 241 | 5.0 | 15.0 | 0.00 | 0.00 | 0.00 | 20 | 1013.2 |
| 20260503171600 | 79 | 234 | 4.0 | 12.0 | 0.00 | 0.00 | 0.00 | 23 | 1013.4 |
| 20260503150104 | 66 | 245 | 5.0 | 14.0 | 0.00 | 0.00 | 0.00 | 35 | 1015.3 |
| 20260503081557 | 52 | 209 | 5.0 | 14.0 | 0.00 | 0.00 | 0.00 | 47 | 1016.6 |
| 20260503071606 | 52 | 176 | 2.0 | 7.0 | 0.00 | 0.00 | 0.00 | 48 | 1017.5 |
| 20260503060111 | 56 | 160 | 4.0 | 11.0 | 0.00 | 0.00 | 0.00 | 40 | 1017.8 |
| 20260503054611 | 56 | 156 | 4.0 | 11.0 | 0.00 | 0.00 | 0.00 | 38 | 1017.7 |
| 20260503053059 | 57 | 179 | 4.0 | 11.0 | 0.00 | 0.00 | 0.00 | 38 | 1017.6 |
| 20260503051559 | 57 | 187 | 4.0 | 15.0 | 0.00 | 0.00 | 0.00 | 37 | 1017.7 |
| 20260503050104 | 56 | 178 | 5.0 | 12.0 | 0.00 | 0.00 | 0.00 | 38 | 1017.6 |
| 20260503044610 | 56 | 170 | 2.0 | 8.0 | 0.00 | 0.00 | 0.00 | 38 | 1017.6 |
| 20260503043119 | 57 | 178 | 2.0 | 6.0 | 0.00 | 0.00 | 0.00 | 38 | 1017.5 |
| 20260503041601 | 58 | 176 | 1.0 | 6.0 | 0.00 | 0.00 | 0.00 | 35 | 1017.6 |
| 20260503040111 | 59 | 162 | 1.0 | 6.0 | 0.00 | 0.00 | 0.00 | 33 | 1017.6 |
| 20260503034602 | 60 | 139 | 2.0 | 7.0 | 0.00 | 0.00 | 0.00 | 31 | 1017.5 |
| 20260503033109 | 61 | 205 | 3.0 | 10.0 | 0.00 | 0.00 | 0.00 | 30 | 1017.5 |
| 20260503031602 | 61 | 170 | 3.0 | 7.0 | 0.00 | 0.00 | 0.00 | 28 | 1017.6 |
| 20260503030058 | 62 | 154 | 1.0 | 4.0 | 0.00 | 0.00 | 0.00 | 27 | 1017.4 |
| 20260503024556 | 63 | 159 | 0.0 | 4.0 | 0.00 | 0.00 | 0.00 | 28 | 1017.2 |
| 20260503023103 | 65 | 168 | 0.0 | 5.0 | 0.00 | 0.00 | 0.00 | 26 | 1017.0 |
| 20260503021605 | 66 | 168 | 0.0 | 3.0 | 0.00 | 0.00 | 0.00 | 26 | 1017.0 |
| 20260503020106 | 67 | 0 | 0.0 | 4.0 | 0.00 | 0.00 | 0.00 | 24 | 1016.9 |
| 20260503014557 | 68 | 0 | 1.0 | 6.0 | 0.00 | 0.00 | 0.00 | 23 | 1016.7 |
| 20260503013107 | 70 | 161 | 2.0 | 5.0 | 0.00 | 0.00 | 0.00 | 22 | 1016.7 |
| 20260503011605 | 71 | 162 | 2.0 | 6.0 | 0.00 | 0.00 | 0.00 | 22 | 1016.8 |